Time,TemperatureF,DewpointF,PressureIn,WindDirection,WindDirectionDegrees,WindSpeedMPH,WindSpeedGustMPH,Humidity,HourlyPrecipIn,Conditions,Clouds,dailyrainin,SoftwareType,DateUTC
2013-07-05 00:00:00,78.2,71.9,30.19,SSW,212,4.0,13.0,81,0.00,,---,0.00,VWS V14.01,2013-07-05 04:00:00,
2013-07-05 00:01:00,78.1,71.8,30.19,SW,219,6.0,7.0,81,0.00,,---,0.00,VWS V14.01,2013-07-05 04:01:00,
2013-07-05 00:02:00,78.1,71.8,30.19,SW,228,4.0,7.0,81,0.00,,---,0.00,VWS V14.01,2013-07-05 04:02:00,
2013-07-05 00:07:00,78.1,71.8,30.19,South,169,6.0,13.0,81,0.00,,---,0.00,VWS V14.01,2013-07-05 04:07:00,
2013-07-05 00:10:00,78.1,71.8,30.19,SW,219,3.0,13.0,81,0.00,,---,0.00,VWS V14.01,2013-07-05 04:10:00,
2013-07-05 00:12:00,78.0,71.7,30.19,SW,236,0.0,7.0,81,0.00,,---,0.00,VWS V14.01,2013-07-05 04:12:00,
2013-07-05 00:17:00,77.9,72.0,30.19,SSW,212,7.0,7.0,82,0.00,,---,0.00,VWS V14.01,2013-07-05 04:17:00,
2013-07-05 00:20:00,77.9,72.0,30.19,SW,224,2.0,10.0,82,0.00,,---,0.00,VWS V14.01,2013-07-05 04:20:00,
2013-07-05 00:22:00,77.9,72.0,30.19,WSW,245,4.0,8.0,82,0.00,,---,0.00,VWS V14.01,2013-07-05 04:22:00,
2013-07-05 00:27:00,77.8,71.9,30.19,SW,228,6.0,8.0,82,0.00,,---,0.00,VWS V14.01,2013-07-05 04:27:00,
2013-07-05 00:30:00,77.8,72.2,30.19,SSW,201,2.0,8.0,83,0.00,,---,0.00,VWS V14.01,2013-07-05 04:30:00,
2013-07-05 00:32:00,77.6,72.0,30.19,SW,224,4.0,5.0,83,0.00,,---,0.00,VWS V14.01,2013-07-05 04:32:00,
2013-07-05 00:37:00,77.5,71.9,30.19,SW,224,2.0,10.0,83,0.00,,---,0.00,VWS V14.01,2013-07-05 04:37:00,
2013-07-05 00:40:00,77.4,71.8,30.19,SW,221,0.0,10.0,83,0.00,,---,0.00,VWS V14.01,2013-07-05 04:40:00,
2013-07-05 00:42:00,77.2,72.0,30.19,West,263,3.0,5.0,84,0.00,,---,0.00,VWS V14.01,2013-07-05 04:42:00,
2013-07-05 00:47:00,77.0,72.2,30.19,WSW,245,4.0,5.0,85,0.00,,---,0.00,VWS V14.01,2013-07-05 04:47:00,
2013-07-05 00:50:00,77.0,71.8,30.19,WSW,245,3.0,5.0,84,0.00,,---,0.00,VWS V14.01,2013-07-05 04:50:00,
2013-07-05 00:52:00,77.0,72.2,30.19,WSW,248,1.0,4.0,85,0.00,,---,0.00,VWS V14.01,2013-07-05 04:52:00,
2013-07-05 00:57:00,76.8,71.9,30.19,WSW,249,2.0,6.0,85,0.00,,---,0.00,VWS V14.01,2013-07-05 04:57:00,
2013-07-05 01:00:00,76.8,71.9,30.19,WNW,284,2.0,6.0,85,0.00,,---,0.00,VWS V14.01,2013-07-05 05:00:00,
2013-07-05 01:02:00,76.6,71.8,30.19,WSW,245,0.0,3.0,85,0.00,,---,0.00,VWS V14.01,2013-07-05 05:02:00,
2013-07-05 01:07:00,76.2,71.7,30.19,WSW,256,1.0,3.0,86,0.00,,---,0.00,VWS V14.01,2013-07-05 05:07:00,
2013-07-05 01:10:00,76.1,71.9,30.18,WNW,295,2.0,3.0,87,0.00,,---,0.00,VWS V14.01,2013-07-05 05:10:00,
2013-07-05 01:12:00,76.0,71.9,30.19,WSW,255,5.0,5.0,87,0.00,,---,0.00,VWS V14.01,2013-07-05 05:12:00,
2013-07-05 01:17:00,75.9,71.8,30.18,WSW,252,3.0,6.0,87,0.00,,---,0.00,VWS V14.01,2013-07-05 05:17:00,
2013-07-05 01:20:00,75.9,71.8,30.18,South,186,1.0,6.0,87,0.00,,---,0.00,VWS V14.01,2013-07-05 05:20:00,
2013-07-05 01:22:00,75.9,71.8,30.19,SW,228,0.0,5.0,87,0.00,,---,0.00,VWS V14.01,2013-07-05 05:22:00,
2013-07-05 01:27:00,75.8,71.7,30.19,WSW,245,3.0,5.0,87,0.00,,---,0.00,VWS V14.01,2013-07-05 05:27:00,
2013-07-05 01:30:00,75.7,71.6,30.18,SW,235,1.0,5.0,87,0.00,,---,0.00,VWS V14.01,2013-07-05 05:30:00,
2013-07-05 01:32:00,75.7,71.9,30.18,West,267,3.0,7.0,88,0.00,,---,0.00,VWS V14.01,2013-07-05 05:32:00,
2013-07-05 01:37:00,75.5,71.7,30.19,WSW,250,2.0,7.0,88,0.00,,---,0.00,VWS V14.01,2013-07-05 05:37:00,
2013-07-05 01:40:00,75.5,71.7,30.19,WSW,251,6.0,7.0,88,0.00,,---,0.00,VWS V14.01,2013-07-05 05:40:00,
2013-07-05 01:42:00,75.6,71.8,30.19,WSW,257,2.0,6.0,88,0.00,,---,0.00,VWS V14.01,2013-07-05 05:42:00,
2013-07-05 01:47:00,75.7,71.9,30.19,SW,219,2.0,7.0,88,0.00,,---,0.00,VWS V14.01,2013-07-05 05:47:00,
2013-07-05 01:50:00,75.6,71.8,30.19,WSW,250,2.0,7.0,88,0.00,,---,0.00,VWS V14.01,2013-07-05 05:50:00,
2013-07-05 01:52:00,75.6,71.8,30.19,SW,226,1.0,5.0,88,0.00,,---,0.00,VWS V14.01,2013-07-05 05:52:00,
2013-07-05 01:57:00,75.4,71.6,30.19,WSW,247,4.0,5.0,88,0.00,,---,0.00,VWS V14.01,2013-07-05 05:57:00,
2013-07-05 02:00:00,75.4,71.6,30.19,West,264,1.0,5.0,88,0.00,,---,0.00,VWS V14.01,2013-07-05 06:00:00,
2013-07-05 02:02:00,75.3,71.5,30.19,SW,226,0.0,4.0,88,0.00,,---,0.00,VWS V14.01,2013-07-05 06:02:00,
2013-07-05 02:07:00,75.1,71.6,30.18,SW,231,0.0,4.0,89,0.00,,---,0.00,VWS V14.01,2013-07-05 06:07:00,
2013-07-05 02:10:00,75.1,71.6,30.19,SW,219,2.0,4.0,89,0.00,,---,0.00,VWS V14.01,2013-07-05 06:10:00,
2013-07-05 02:12:00,75.0,71.5,30.19,WSW,245,2.0,2.0,89,0.00,,---,0.00,VWS V14.01,2013-07-05 06:12:00,
2013-07-05 02:17:00,75.0,71.5,30.19,WSW,247,3.0,6.0,89,0.00,,---,0.00,VWS V14.01,2013-07-05 06:17:00,
2013-07-05 02:20:00,75.0,71.5,30.19,WSW,255,3.0,6.0,89,0.00,,---,0.00,VWS V14.01,2013-07-05 06:20:00,
2013-07-05 02:22:00,74.9,71.4,30.19,WSW,238,0.0,3.0,89,0.00,,---,0.00,VWS V14.01,2013-07-05 06:22:00,
2013-07-05 02:27:00,74.8,71.7,30.19,WSW,240,2.0,7.0,90,0.00,,---,0.00,VWS V14.01,2013-07-05 06:27:00,
2013-07-05 02:30:00,74.8,71.7,30.19,WSW,245,2.0,7.0,90,0.00,,---,0.00,VWS V14.01,2013-07-05 06:30:00,
2013-07-05 02:32:00,74.8,71.7,30.19,WSW,250,0.0,4.0,90,0.00,,---,0.00,VWS V14.01,2013-07-05 06:32:00,
2013-07-05 02:37:00,74.6,71.5,30.19,SW,235,3.0,4.0,90,0.00,,---,0.00,VWS V14.01,2013-07-05 06:37:00,
2013-07-05 02:40:00,74.6,71.5,30.19,South,191,2.0,4.0,90,0.00,,---,0.00,VWS V14.01,2013-07-05 06:40:00,
2013-07-05 02:42:00,74.6,71.8,30.19,West,266,3.0,7.0,91,0.00,,---,0.00,VWS V14.01,2013-07-05 06:42:00,
2013-07-05 02:47:00,74.5,71.4,30.19,SW,224,1.0,7.0,90,0.00,,---,0.00,VWS V14.01,2013-07-05 06:47:00,
2013-07-05 02:50:00,74.5,71.7,30.19,SW,235,0.0,7.0,91,0.00,,---,0.00,VWS V14.01,2013-07-05 06:50:00,
2013-07-05 02:52:00,74.5,71.7,30.19,WSW,240,4.0,4.0,91,0.00,,---,0.00,VWS V14.01,2013-07-05 06:52:00,
2013-07-05 02:57:00,74.4,71.6,30.19,WNW,284,1.0,4.0,91,0.00,,---,0.00,VWS V14.01,2013-07-05 06:57:00,
2013-07-05 03:00:00,74.4,71.6,30.19,West,270,4.0,6.0,91,0.00,,---,0.00,VWS V14.01,2013-07-05 07:00:00,
2013-07-05 03:02:00,74.3,71.5,30.19,West,269,5.0,7.0,91,0.00,,---,0.00,VWS V14.01,2013-07-05 07:02:00,
2013-07-05 03:07:00,74.2,71.4,30.19,WSW,242,2.0,7.0,91,0.00,,---,0.00,VWS V14.01,2013-07-05 07:07:00,
2013-07-05 03:10:00,74.2,71.4,30.19,WSW,245,2.0,7.0,91,0.00,,---,0.00,VWS V14.01,2013-07-05 07:10:00,
2013-07-05 03:12:00,74.2,71.4,30.19,SW,235,2.0,4.0,91,0.00,,---,0.00,VWS V14.01,2013-07-05 07:12:00,
2013-07-05 03:17:00,74.1,71.3,30.19,WSW,245,0.0,5.0,91,0.00,,---,0.00,VWS V14.01,2013-07-05 07:17:00,
2013-07-05 03:20:00,74.0,71.2,30.19,SSW,205,2.0,5.0,91,0.00,,---,0.00,VWS V14.01,2013-07-05 07:20:00,
2013-07-05 03:22:00,74.0,71.2,30.19,WSW,246,1.0,3.0,91,0.00,,---,0.00,VWS V14.01,2013-07-05 07:22:00,
2013-07-05 03:27:00,74.0,71.2,30.19,WNW,282,1.0,4.0,91,0.00,,---,0.00,VWS V14.01,2013-07-05 07:27:00,
2013-07-05 03:30:00,73.9,71.1,30.18,SW,219,1.0,4.0,91,0.00,,---,0.00,VWS V14.01,2013-07-05 07:30:00,
2013-07-05 03:32:00,73.8,71.0,30.18,WSW,248,0.0,3.0,91,0.00,,---,0.00,VWS V14.01,2013-07-05 07:32:00,
2013-07-05 03:37:00,73.7,70.9,30.18,WSW,240,0.0,3.0,91,0.00,,---,0.00,VWS V14.01,2013-07-05 07:37:00,
2013-07-05 03:40:00,73.7,71.2,30.18,WSW,241,2.0,3.0,92,0.00,,---,0.00,VWS V14.01,2013-07-05 07:40:00,
2013-07-05 03:42:00,73.7,70.9,30.18,WSW,243,1.0,4.0,91,0.00,,---,0.00,VWS V14.01,2013-07-05 07:42:00,
2013-07-05 03:47:00,73.6,70.8,30.18,West,259,1.0,4.0,91,0.00,,---,0.00,VWS V14.01,2013-07-05 07:47:00,
2013-07-05 03:50:00,73.6,71.1,30.18,WSW,240,0.0,4.0,92,0.00,,---,0.00,VWS V14.01,2013-07-05 07:50:00,
2013-07-05 03:52:00,73.6,70.8,30.18,SW,222,1.0,3.0,91,0.00,,---,0.00,VWS V14.01,2013-07-05 07:52:00,
2013-07-05 03:57:00,73.4,70.9,30.18,West,281,0.0,3.0,92,0.00,,---,0.00,VWS V14.01,2013-07-05 07:57:00,
2013-07-05 04:00:00,73.4,70.9,30.18,WSW,248,1.0,3.0,92,0.00,,---,0.00,VWS V14.01,2013-07-05 08:00:00,
2013-07-05 04:02:00,73.3,70.8,30.18,West,260,0.0,1.0,92,0.00,,---,0.00,VWS V14.01,2013-07-05 08:02:00,
2013-07-05 04:07:00,73.3,70.8,30.18,SW,217,1.0,4.0,92,0.00,,---,0.00,VWS V14.01,2013-07-05 08:07:00,
2013-07-05 04:10:00,73.3,70.8,30.18,SW,229,1.0,4.0,92,0.00,,---,0.00,VWS V14.01,2013-07-05 08:10:00,
2013-07-05 04:13:00,73.3,70.8,30.18,SSW,200,0.0,3.0,92,0.00,,---,0.00,VWS V14.01,2013-07-05 08:13:00,
2013-07-05 04:18:00,73.3,70.8,30.18,SW,221,1.0,5.0,92,0.00,,---,0.00,VWS V14.01,2013-07-05 08:18:00,
2013-07-05 04:20:00,73.3,70.8,30.18,West,259,0.0,5.0,92,0.00,,---,0.00,VWS V14.01,2013-07-05 08:20:00,
2013-07-05 04:23:00,73.3,70.8,30.18,West,261,1.0,5.0,92,0.00,,---,0.00,VWS V14.01,2013-07-05 08:23:00,
2013-07-05 04:28:00,73.3,70.8,30.18,WSW,245,0.0,5.0,92,0.00,,---,0.00,VWS V14.01,2013-07-05 08:28:00,
2013-07-05 04:30:00,73.3,70.8,30.18,WSW,252,4.0,5.0,92,0.00,,---,0.00,VWS V14.01,2013-07-05 08:30:00,
2013-07-05 04:33:00,73.3,70.8,30.18,SW,226,1.0,4.0,92,0.00,,---,0.00,VWS V14.01,2013-07-05 08:33:00,
2013-07-05 04:38:00,73.2,70.7,30.18,WSW,250,2.0,5.0,92,0.00,,---,0.00,VWS V14.01,2013-07-05 08:38:00,
2013-07-05 04:40:00,73.2,70.7,30.18,SSW,198,2.0,5.0,92,0.00,,---,0.00,VWS V14.01,2013-07-05 08:40:00,
2013-07-05 04:43:00,73.3,70.8,30.18,WSW,256,4.0,9.0,92,0.00,,---,0.00,VWS V14.01,2013-07-05 08:43:00,
2013-07-05 04:48:00,73.4,70.9,30.18,SW,216,3.0,9.0,92,0.00,,---,0.00,VWS V14.01,2013-07-05 08:48:00,
2013-07-05 04:50:00,73.4,70.6,30.18,SW,236,2.0,9.0,91,0.00,,---,0.00,VWS V14.01,2013-07-05 08:50:00,
2013-07-05 04:53:00,73.4,70.9,30.18,SW,231,3.0,7.0,92,0.00,,---,0.00,VWS V14.01,2013-07-05 08:53:00,
2013-07-05 04:58:00,73.4,70.9,30.18,SSW,207,3.0,8.0,92,0.00,,---,0.00,VWS V14.01,2013-07-05 08:58:00,
2013-07-05 05:00:00,73.4,70.9,30.18,SW,224,4.0,8.0,92,0.00,,---,0.00,VWS V14.01,2013-07-05 09:00:00,
2013-07-05 05:03:00,73.4,70.9,30.18,SSW,201,4.0,6.0,92,0.00,,---,0.00,VWS V14.01,2013-07-05 09:03:00,
2013-07-05 05:08:00,73.5,70.7,30.18,SSW,206,3.0,11.0,91,0.00,,---,0.00,VWS V14.01,2013-07-05 09:08:00,
2013-07-05 05:10:00,73.5,70.7,30.18,SSW,198,5.0,11.0,91,0.00,,---,0.00,VWS V14.01,2013-07-05 09:10:00,
2013-07-05 05:13:00,73.5,70.7,30.18,SW,225,5.0,7.0,91,0.00,,---,0.00,VWS V14.01,2013-07-05 09:13:00,
2013-07-05 05:18:00,73.5,70.7,30.18,SW,222,4.0,9.0,91,0.00,,---,0.00,VWS V14.01,2013-07-05 09:18:00,
2013-07-05 05:20:00,73.5,70.7,30.18,SW,226,3.0,9.0,91,0.00,,---,0.00,VWS V14.01,2013-07-05 09:20:00,
2013-07-05 05:23:00,73.5,70.7,30.18,SSW,203,5.0,7.0,91,0.00,,---,0.00,VWS V14.01,2013-07-05 09:23:00,
2013-07-05 05:28:00,73.6,70.8,30.18,WSW,253,2.0,8.0,91,0.00,,---,0.00,VWS V14.01,2013-07-05 09:28:00,
2013-07-05 05:30:00,73.6,70.8,30.18,SSW,201,0.0,8.0,91,0.00,,---,0.00,VWS V14.01,2013-07-05 09:30:00,
2013-07-05 05:33:00,73.5,70.7,30.18,SSW,205,5.0,9.0,91,0.00,,---,0.00,VWS V14.01,2013-07-05 09:33:00,
2013-07-05 05:39:00,73.5,70.7,30.18,SSW,212,1.0,9.0,91,0.00,,---,0.00,VWS V14.01,2013-07-05 09:39:00,
2013-07-05 05:40:00,73.5,70.7,30.18,WSW,249,3.0,9.0,91,0.00,,---,0.00,VWS V14.01,2013-07-05 09:40:00,
2013-07-05 05:44:00,73.5,70.4,30.18,SSW,212,6.0,8.0,90,0.00,,---,0.00,VWS V14.01,2013-07-05 09:44:00,
2013-07-05 05:49:00,73.5,70.4,30.18,SW,215,4.0,8.0,90,0.00,,---,0.00,VWS V14.01,2013-07-05 09:49:00,
2013-07-05 05:50:00,73.5,70.4,30.18,SSW,205,4.0,8.0,90,0.00,,---,0.00,VWS V14.01,2013-07-05 09:50:00,
2013-07-05 05:54:00,73.5,70.4,30.19,SSW,201,5.0,6.0,90,0.00,,---,0.00,VWS V14.01,2013-07-05 09:54:00,
2013-07-05 05:59:00,73.4,70.3,30.18,SW,236,1.0,6.0,90,0.00,,---,0.00,VWS V14.01,2013-07-05 09:59:00,
2013-07-05 06:00:00,73.4,70.3,30.19,SW,233,0.0,6.0,90,0.00,,---,0.00,VWS V14.01,2013-07-05 10:00:00,
2013-07-05 06:04:00,73.3,70.2,30.19,WSW,253,0.0,2.0,90,0.00,,---,0.00,VWS V14.01,2013-07-05 10:04:00,
2013-07-05 06:09:00,73.2,70.4,30.19,West,274,0.0,2.0,91,0.00,,---,0.00,VWS V14.01,2013-07-05 10:09:00,
2013-07-05 06:10:00,73.2,70.4,30.19,West,274,0.0,2.0,91,0.00,,---,0.00,VWS V14.01,2013-07-05 10:10:00,
2013-07-05 06:14:00,73.0,70.2,30.19,NNW,338,0.0,1.0,91,0.00,,---,0.00,VWS V14.01,2013-07-05 10:14:00,
2013-07-05 06:19:00,72.7,70.2,30.19,NNW,339,0.0,0.0,92,0.00,,---,0.00,VWS V14.01,2013-07-05 10:19:00,
2013-07-05 06:20:00,72.7,70.2,30.19,NNW,339,0.0,1.0,92,0.00,,---,0.00,VWS V14.01,2013-07-05 10:20:00,
2013-07-05 06:25:00,72.4,69.9,30.19,North,11,0.0,0.0,92,0.00,,---,0.00,VWS V14.01,2013-07-05 10:25:00,
2013-07-05 06:29:00,72.5,70.4,30.19,North,11,0.0,0.0,93,0.00,,---,0.00,VWS V14.01,2013-07-05 10:29:00,
2013-07-05 06:30:00,72.4,70.3,30.19,North,11,0.0,0.0,93,0.00,,---,0.00,VWS V14.01,2013-07-05 10:30:00,
2013-07-05 06:35:00,72.6,70.5,30.19,ENE,77,0.0,1.0,93,0.00,,---,0.00,VWS V14.01,2013-07-05 10:35:00,
2013-07-05 06:40:00,72.9,70.4,30.19,ESE,105,0.0,0.0,92,0.00,,---,0.00,VWS V14.01,2013-07-05 10:40:00,
2013-07-05 06:45:00,73.4,70.9,30.19,SSW,212,0.0,4.0,92,0.00,,---,0.00,VWS V14.01,2013-07-05 10:45:00,
2013-07-05 06:50:00,73.8,71.0,30.19,WSW,249,0.0,0.0,91,0.00,,---,0.00,VWS V14.01,2013-07-05 10:50:00,
2013-07-05 06:55:00,74.0,71.2,30.19,WSW,253,0.0,1.0,91,0.00,,---,0.00,VWS V14.01,2013-07-05 10:55:00,
2013-07-05 07:00:00,74.2,71.1,30.19,WSW,253,5.0,5.0,90,0.00,,---,0.00,VWS V14.01,2013-07-05 11:00:00,
2013-07-05 07:05:00,74.5,71.1,30.19,SSW,198,1.0,7.0,89,0.00,,---,0.00,VWS V14.01,2013-07-05 11:05:00,
2013-07-05 07:10:00,74.9,71.4,30.19,SW,219,2.0,6.0,89,0.00,,---,0.00,VWS V14.01,2013-07-05 11:10:00,
2013-07-05 07:15:00,75.1,71.6,30.20,West,263,3.0,9.0,89,0.00,,---,0.00,VWS V14.01,2013-07-05 11:15:00,
2013-07-05 07:20:00,75.3,71.5,30.20,SW,217,3.0,9.0,88,0.00,,---,0.00,VWS V14.01,2013-07-05 11:20:00,
2013-07-05 07:25:00,75.4,71.6,30.20,SW,216,3.0,9.0,88,0.00,,---,0.00,VWS V14.01,2013-07-05 11:25:00,
2013-07-05 07:30:00,75.3,71.5,30.20,SSW,210,1.0,6.0,88,0.00,,---,0.00,VWS V14.01,2013-07-05 11:30:00,
2013-07-05 07:36:00,75.3,71.5,30.20,SW,215,8.0,8.0,88,0.00,,---,0.00,VWS V14.01,2013-07-05 11:36:00,
2013-07-05 07:40:00,75.2,71.4,30.20,SW,214,4.0,8.0,88,0.00,,---,0.00,VWS V14.01,2013-07-05 11:40:00,
2013-07-05 07:41:00,75.1,71.3,30.20,WSW,241,4.0,10.0,88,0.00,,---,0.00,VWS V14.01,2013-07-05 11:41:00,
2013-07-05 07:47:00,75.2,71.7,30.20,WSW,247,1.0,11.0,89,0.00,,---,0.00,VWS V14.01,2013-07-05 11:47:00,
2013-07-05 07:50:00,75.2,71.7,30.20,West,267,1.0,11.0,89,0.00,,---,0.00,VWS V14.01,2013-07-05 11:50:00,
2013-07-05 07:52:00,75.2,71.4,30.20,SW,217,5.0,9.0,88,0.00,,---,0.00,VWS V14.01,2013-07-05 11:52:00,
2013-07-05 07:57:00,75.3,71.5,30.20,West,259,2.0,9.0,88,0.00,,---,0.00,VWS V14.01,2013-07-05 11:57:00,
2013-07-05 08:00:00,75.4,71.9,30.20,WNW,288,3.0,9.0,89,0.00,,---,0.00,VWS V14.01,2013-07-05 12:00:00,
2013-07-05 08:02:00,75.5,71.7,30.20,WSW,243,6.0,9.0,88,0.00,,---,0.00,VWS V14.01,2013-07-05 12:02:00,
2013-07-05 08:07:00,75.8,72.0,30.20,WSW,255,4.0,9.0,88,0.00,,---,0.00,VWS V14.01,2013-07-05 12:07:00,
2013-07-05 08:10:00,76.0,71.9,30.21,SW,226,7.0,9.0,87,0.00,,---,0.00,VWS V14.01,2013-07-05 12:10:00,
2013-07-05 08:12:00,76.1,72.3,30.21,WSW,243,3.0,7.0,88,0.00,,---,0.00,VWS V14.01,2013-07-05 12:12:00,
2013-07-05 08:17:00,76.3,71.8,30.21,SSW,205,2.0,11.0,86,0.00,,---,0.00,VWS V14.01,2013-07-05 12:17:00,
2013-07-05 08:20:00,76.4,72.2,30.21,SW,223,8.0,11.0,87,0.00,,---,0.00,VWS V14.01,2013-07-05 12:20:00,
2013-07-05 08:22:00,76.5,72.3,30.21,WSW,242,6.0,11.0,87,0.00,,---,0.00,VWS V14.01,2013-07-05 12:22:00,
2013-07-05 08:27:00,76.7,72.2,30.21,West,259,7.0,15.0,86,0.00,,---,0.00,VWS V14.01,2013-07-05 12:27:00,
2013-07-05 08:30:00,76.6,72.1,30.21,West,262,3.0,15.0,86,0.00,,---,0.00,VWS V14.01,2013-07-05 12:30:00,
2013-07-05 08:32:00,76.6,72.1,30.21,SW,229,6.0,10.0,86,0.00,,---,0.00,VWS V14.01,2013-07-05 12:32:00,
2013-07-05 08:37:00,76.9,72.4,30.21,SSW,201,5.0,10.0,86,0.00,,---,0.00,VWS V14.01,2013-07-05 12:37:00,
2013-07-05 08:40:00,77.0,72.5,30.21,SSW,204,7.0,11.0,86,0.00,,---,0.00,VWS V14.01,2013-07-05 12:40:00,
2013-07-05 08:43:00,77.0,71.8,30.21,SW,235,5.0,11.0,84,0.00,,---,0.00,VWS V14.01,2013-07-05 12:43:00,
2013-07-05 08:48:00,77.1,71.9,30.21,SW,224,4.0,11.0,84,0.00,,---,0.00,VWS V14.01,2013-07-05 12:48:00,
2013-07-05 08:50:00,77.2,72.3,30.21,South,190,8.0,11.0,85,0.00,,---,0.00,VWS V14.01,2013-07-05 12:50:00,
2013-07-05 08:53:00,77.4,72.2,30.21,SW,217,6.0,10.0,84,0.00,,---,0.00,VWS V14.01,2013-07-05 12:53:00,
2013-07-05 08:58:00,77.9,72.7,30.21,SW,222,4.0,10.0,84,0.00,,---,0.00,VWS V14.01,2013-07-05 12:58:00,
2013-07-05 09:00:00,77.9,72.7,30.21,West,259,6.0,10.0,84,0.00,,---,0.00,VWS V14.01,2013-07-05 13:00:00,
2013-07-05 09:03:00,78.2,73.0,30.21,West,278,3.0,8.0,84,0.00,,---,0.00,VWS V14.01,2013-07-05 13:03:00,
2013-07-05 09:09:00,78.4,72.8,30.21,WSW,240,5.0,8.0,83,0.00,,---,0.00,VWS V14.01,2013-07-05 13:09:00,
2013-07-05 09:10:00,78.4,72.8,30.21,WNW,283,6.0,8.0,83,0.00,,---,0.00,VWS V14.01,2013-07-05 13:10:00,
2013-07-05 09:14:00,78.5,72.6,30.21,West,259,6.0,10.0,82,0.00,,---,0.00,VWS V14.01,2013-07-05 13:14:00,
2013-07-05 09:19:00,78.7,73.1,30.21,South,184,6.0,10.0,83,0.00,,---,0.00,VWS V14.01,2013-07-05 13:19:00,
2013-07-05 09:20:00,78.7,73.1,30.21,South,184,6.0,10.0,83,0.00,,---,0.00,VWS V14.01,2013-07-05 13:20:00,
2013-07-05 09:24:00,78.7,72.4,30.21,West,275,4.0,10.0,81,0.00,,---,0.00,VWS V14.01,2013-07-05 13:24:00,
2013-07-05 09:29:00,78.8,72.5,30.21,SSW,196,10.0,10.0,81,0.00,,---,0.00,VWS V14.01,2013-07-05 13:29:00,
2013-07-05 09:30:00,78.8,72.5,30.21,SSW,196,10.0,10.0,81,0.00,,---,0.00,VWS V14.01,2013-07-05 13:30:00,
2013-07-05 09:34:00,79.3,72.6,30.21,SW,215,7.0,14.0,80,0.00,,---,0.00,VWS V14.01,2013-07-05 13:34:00,
2013-07-05 09:39:00,79.4,72.7,30.21,SW,217,4.0,4.0,80,0.00,,---,0.00,VWS V14.01,2013-07-05 13:39:00,
2013-07-05 09:40:00,79.3,72.6,30.21,South,172,2.0,14.0,80,0.00,,---,0.00,VWS V14.01,2013-07-05 13:40:00,
2013-07-05 09:44:00,79.5,73.2,30.21,SW,224,5.0,10.0,81,0.00,,---,0.00,VWS V14.01,2013-07-05 13:44:00,
2013-07-05 09:49:00,79.5,72.8,30.21,WSW,240,11.0,12.0,80,0.00,,---,0.00,VWS V14.01,2013-07-05 13:49:00,
2013-07-05 09:50:00,79.5,72.4,30.21,WSW,240,12.0,12.0,79,0.00,,---,0.00,VWS V14.01,2013-07-05 13:50:00,
2013-07-05 09:54:00,79.6,72.9,30.21,SSW,194,7.0,13.0,80,0.00,,---,0.00,VWS V14.01,2013-07-05 13:54:00,
2013-07-05 09:59:00,79.5,72.4,30.21,South,180,7.0,7.0,79,0.00,,---,0.00,VWS V14.01,2013-07-05 13:59:00,
2013-07-05 10:00:00,79.5,72.4,30.21,SSE,166,6.0,13.0,79,0.00,,---,0.00,VWS V14.01,2013-07-05 14:00:00,
2013-07-05 10:04:00,79.3,72.6,30.21,WSW,243,4.0,15.0,80,0.00,,---,0.00,VWS V14.01,2013-07-05 14:04:00,
2013-07-05 10:10:00,79.3,72.2,30.21,South,191,4.0,8.0,79,0.00,,---,0.00,VWS V14.01,2013-07-05 14:10:00,
2013-07-05 10:15:00,79.1,71.7,30.21,SW,228,5.0,11.0,78,0.00,,---,0.00,VWS V14.01,2013-07-05 14:15:00,
2013-07-05 10:20:00,79.1,72.4,30.21,WSW,255,4.0,7.0,80,0.00,,---,0.00,VWS V14.01,2013-07-05 14:20:00,
2013-07-05 10:25:00,79.7,72.6,30.21,West,259,4.0,12.0,79,0.00,,---,0.00,VWS V14.01,2013-07-05 14:25:00,
2013-07-05 10:30:00,80.1,72.6,30.21,SW,234,6.0,7.0,78,0.00,,---,0.00,VWS V14.01,2013-07-05 14:30:00,
2013-07-05 10:35:00,79.9,71.7,30.21,SW,224,6.0,12.0,76,0.00,,---,0.00,VWS V14.01,2013-07-05 14:35:00,
2013-07-05 10:40:00,80.1,73.0,30.21,West,278,4.0,12.0,79,0.00,,---,0.00,VWS V14.01,2013-07-05 14:40:00,
2013-07-05 10:41:00,80.3,72.1,30.21,West,262,8.0,9.0,76,0.00,,---,0.00,VWS V14.01,2013-07-05 14:41:00,
2013-07-05 10:46:00,80.5,73.0,30.21,West,260,6.0,12.0,78,0.00,,---,0.00,VWS V14.01,2013-07-05 14:46:00,
2013-07-05 10:50:00,80.5,72.2,30.21,West,264,6.0,14.0,76,0.00,,---,0.00,VWS V14.01,2013-07-05 14:50:00,
2013-07-05 10:51:00,80.3,72.4,30.21,West,270,7.0,11.0,77,0.00,,---,0.00,VWS V14.01,2013-07-05 14:51:00,
2013-07-05 10:56:00,81.0,73.5,30.21,SW,235,13.0,16.0,78,0.00,,---,0.00,VWS V14.01,2013-07-05 14:56:00,
2013-07-05 11:00:00,81.0,72.3,30.22,South,187,10.0,16.0,75,0.00,,---,0.00,VWS V14.01,2013-07-05 15:00:00,
2013-07-05 11:01:00,81.0,72.7,30.22,SW,227,9.0,14.0,76,0.00,,---,0.00,VWS V14.01,2013-07-05 15:01:00,
2013-07-05 11:06:00,81.0,72.7,30.22,SW,224,6.0,14.0,76,0.00,,---,0.00,VWS V14.01,2013-07-05 15:06:00,
2013-07-05 11:10:00,80.9,72.6,30.22,SSW,203,5.0,14.0,76,0.00,,---,0.00,VWS V14.01,2013-07-05 15:10:00,
2013-07-05 11:11:00,81.0,72.7,30.22,South,188,3.0,11.0,76,0.00,,---,0.00,VWS V14.01,2013-07-05 15:11:00,
2013-07-05 11:16:00,81.4,72.7,30.22,SSW,211,6.0,13.0,75,0.00,,---,0.00,VWS V14.01,2013-07-05 15:16:00,
2013-07-05 11:20:00,81.4,73.5,30.22,West,263,6.0,13.0,77,0.00,,---,0.00,VWS V14.01,2013-07-05 15:20:00,
2013-07-05 11:21:00,81.4,72.3,30.22,WSW,245,7.0,11.0,74,0.00,,---,0.00,VWS V14.01,2013-07-05 15:21:00,
2013-07-05 11:26:00,81.4,72.3,30.22,South,177,3.0,14.0,74,0.00,,---,0.00,VWS V14.01,2013-07-05 15:26:00,
2013-07-05 11:30:00,81.5,72.8,30.22,SSW,203,15.0,15.0,75,0.00,,---,0.00,VWS V14.01,2013-07-05 15:30:00,
2013-07-05 11:31:00,81.5,72.4,30.22,SW,214,11.0,16.0,74,0.00,,---,0.00,VWS V14.01,2013-07-05 15:31:00,
2013-07-05 11:36:00,81.6,73.3,30.22,SSE,152,4.0,16.0,76,0.00,,---,0.00,VWS V14.01,2013-07-05 15:36:00,
2013-07-05 11:40:00,81.7,72.6,30.22,WSW,256,3.0,16.0,74,0.00,,---,0.00,VWS V14.01,2013-07-05 15:40:00,
2013-07-05 11:41:00,81.7,73.0,30.22,WSW,255,0.0,11.0,75,0.00,,---,0.00,VWS V14.01,2013-07-05 15:41:00,
2013-07-05 11:46:00,81.4,73.1,30.22,SSW,203,11.0,12.0,76,0.00,,---,0.00,VWS V14.01,2013-07-05 15:46:00,
2013-07-05 11:49:00,81.4,72.7,30.22,SW,217,5.0,7.0,75,0.00,,---,0.00,VWS V14.01,2013-07-05 15:49:00,
2013-07-05 11:50:00,81.4,72.7,30.22,SW,217,5.0,12.0,75,0.00,,---,0.00,VWS V14.01,2013-07-05 15:50:00,
2013-07-05 11:54:00,81.9,73.6,30.22,SE,136,6.0,11.0,76,0.00,,---,0.00,VWS V14.01,2013-07-05 15:54:00,
2013-07-05 11:59:00,81.9,72.4,30.21,SW,236,10.0,12.0,73,0.00,,---,0.00,VWS V14.01,2013-07-05 15:59:00,
2013-07-05 12:00:00,81.9,72.8,30.21,West,280,6.0,13.0,74,0.00,,---,0.00,VWS V14.01,2013-07-05 16:00:00,
2013-07-05 12:04:00,82.1,73.8,30.21,SSW,208,6.0,12.0,76,0.00,,---,0.00,VWS V14.01,2013-07-05 16:04:00,
2013-07-05 12:10:00,82.5,73.4,30.21,SSE,153,13.0,15.0,74,0.00,,---,0.00,VWS V14.01,2013-07-05 16:10:00,
2013-07-05 12:15:00,82.4,73.7,30.21,SSW,211,6.0,16.0,75,0.00,,---,0.00,VWS V14.01,2013-07-05 16:15:00,
2013-07-05 12:20:00,82.9,73.8,30.21,SSW,210,6.0,12.0,74,0.00,,---,0.00,VWS V14.01,2013-07-05 16:20:00,
2013-07-05 12:25:00,83.4,72.6,30.21,WSW,242,7.0,15.0,70,0.00,,---,0.00,VWS V14.01,2013-07-05 16:25:00,
2013-07-05 12:30:00,83.2,73.2,30.21,South,188,7.0,12.0,72,0.00,,---,0.00,VWS V14.01,2013-07-05 16:30:00,
2013-07-05 12:35:00,83.5,73.1,30.21,SSW,207,13.0,18.0,71,0.00,,---,0.00,VWS V14.01,2013-07-05 16:35:00,
2013-07-05 12:40:00,83.7,73.3,30.21,SSW,193,7.0,8.0,71,0.00,,---,0.00,VWS V14.01,2013-07-05 16:40:00,
2013-07-05 12:45:00,84.0,72.7,30.20,South,177,11.0,16.0,69,0.00,,---,0.00,VWS V14.01,2013-07-05 16:45:00,
2013-07-05 12:50:00,83.9,72.7,30.20,SW,215,7.0,8.0,69,0.00,,---,0.00,VWS V14.01,2013-07-05 16:50:00,
2013-07-05 12:55:00,84.0,72.7,30.20,SW,217,12.0,12.0,69,0.00,,---,0.00,VWS V14.01,2013-07-05 16:55:00,
2013-07-05 13:00:00,83.9,72.7,30.20,SW,231,8.0,11.0,69,0.00,,---,0.00,VWS V14.01,2013-07-05 17:00:00,
2013-07-05 13:05:00,84.3,73.0,30.20,SSW,201,10.0,13.0,69,0.00,,---,0.00,VWS V14.01,2013-07-05 17:05:00,
2013-07-05 13:10:00,84.3,72.6,30.20,SW,226,13.0,13.0,68,0.00,,---,0.00,VWS V14.01,2013-07-05 17:10:00,
2013-07-05 13:15:00,84.3,72.6,30.19,SSW,211,9.0,14.0,68,0.00,,---,0.00,VWS V14.01,2013-07-05 17:15:00,
2013-07-05 13:20:00,84.7,72.1,30.19,WSW,242,10.0,13.0,66,0.00,,---,0.00,VWS V14.01,2013-07-05 17:20:00,
2013-07-05 13:25:00,84.9,74.0,30.20,SW,219,8.0,13.0,70,0.00,,---,0.00,VWS V14.01,2013-07-05 17:25:00,
2013-07-05 13:30:00,84.9,72.3,30.20,South,177,12.0,17.0,66,0.00,,---,0.00,VWS V14.01,2013-07-05 17:30:00,
2013-07-05 13:35:00,85.0,73.7,30.19,West,271,3.0,17.0,69,0.00,,---,0.00,VWS V14.01,2013-07-05 17:35:00,
2013-07-05 13:40:00,85.1,72.5,30.19,SW,215,7.0,9.0,66,0.00,,---,0.00,VWS V14.01,2013-07-05 17:40:00,
2013-07-05 13:45:00,85.3,72.7,30.19,South,188,3.0,12.0,66,0.00,,---,0.00,VWS V14.01,2013-07-05 17:45:00,
2013-07-05 13:50:00,85.6,72.9,30.19,SSW,205,7.0,14.0,66,0.00,,---,0.00,VWS V14.01,2013-07-05 17:50:00,
2013-07-05 13:55:00,85.6,73.8,30.19,SSW,212,11.0,15.0,68,0.00,,---,0.00,VWS V14.01,2013-07-05 17:55:00,
2013-07-05 14:00:00,85.6,72.9,30.19,WSW,257,6.0,8.0,66,0.00,,---,0.00,VWS V14.01,2013-07-05 18:00:00,
2013-07-05 14:05:00,85.7,74.4,30.19,WSW,258,2.0,11.0,69,0.00,,---,0.00,VWS V14.01,2013-07-05 18:05:00,
2013-07-05 14:10:00,85.9,72.8,30.18,SSW,203,5.0,12.0,65,0.00,,---,0.00,VWS V14.01,2013-07-05 18:10:00,
2013-07-05 14:15:00,86.0,73.8,30.18,SSW,210,4.0,16.0,67,0.00,,---,0.00,VWS V14.01,2013-07-05 18:15:00,
2013-07-05 14:20:00,85.8,72.7,30.18,SW,222,4.0,7.0,65,0.00,,---,0.00,VWS V14.01,2013-07-05 18:20:00,
2013-07-05 14:25:00,86.1,73.9,30.18,SSW,207,4.0,10.0,67,0.00,,---,0.00,VWS V14.01,2013-07-05 18:25:00,
2013-07-05 14:30:00,86.4,72.3,30.18,South,191,6.0,13.0,63,0.00,,---,0.00,VWS V14.01,2013-07-05 18:30:00,
2013-07-05 14:35:00,86.6,73.9,30.17,SSW,193,4.0,13.0,66,0.00,,---,0.00,VWS V14.01,2013-07-05 18:35:00,
2013-07-05 14:40:00,86.6,73.4,30.17,SSE,166,4.0,5.0,65,0.00,,---,0.00,VWS V14.01,2013-07-05 18:40:00,
2013-07-05 14:45:00,86.8,73.2,30.17,SW,218,4.0,10.0,64,0.00,,---,0.00,VWS V14.01,2013-07-05 18:45:00,
2013-07-05 14:50:00,87.0,72.4,30.17,South,188,2.0,7.0,62,0.00,,---,0.00,VWS V14.01,2013-07-05 18:50:00,
2013-07-05 14:55:00,86.8,74.1,30.17,WSW,246,1.0,9.0,66,0.00,,---,0.00,VWS V14.01,2013-07-05 18:55:00,
2013-07-05 15:00:00,87.0,73.8,30.17,SSW,207,6.0,6.0,65,0.00,,---,0.00,VWS V14.01,2013-07-05 19:00:00,
2013-07-05 15:05:00,87.1,73.4,30.16,WSW,248,4.0,9.0,64,0.00,,---,0.00,VWS V14.01,2013-07-05 19:05:00,
2013-07-05 15:10:00,87.0,73.8,30.16,SSW,203,4.0,8.0,65,0.00,,---,0.00,VWS V14.01,2013-07-05 19:10:00,
2013-07-05 15:15:00,86.6,73.0,30.16,South,172,3.0,11.0,64,0.00,,---,0.00,VWS V14.01,2013-07-05 19:15:00,
2013-07-05 15:20:00,86.3,74.1,30.16,SSW,210,4.0,7.0,67,0.00,,---,0.00,VWS V14.01,2013-07-05 19:20:00,
2013-07-05 15:25:00,86.4,74.6,30.16,SSW,212,6.0,8.0,68,0.00,,---,0.00,VWS V14.01,2013-07-05 19:25:00,
2013-07-05 15:30:00,86.4,73.7,30.16,SSE,153,2.0,11.0,66,0.00,,---,0.00,VWS V14.01,2013-07-05 19:30:00,
2013-07-05 15:35:00,86.6,73.9,30.16,SSW,203,8.0,12.0,66,0.00,,---,0.00,VWS V14.01,2013-07-05 19:35:00,
2013-07-05 15:40:00,86.6,73.4,30.15,South,187,4.0,10.0,65,0.00,,---,0.00,VWS V14.01,2013-07-05 19:40:00,
2013-07-05 15:45:00,86.6,73.4,30.15,SW,214,1.0,10.0,65,0.00,,---,0.00,VWS V14.01,2013-07-05 19:45:00,
2013-07-05 15:50:00,86.8,74.1,30.15,SW,228,4.0,8.0,66,0.00,,---,0.00,VWS V14.01,2013-07-05 19:50:00,
2013-07-05 15:55:00,86.9,73.3,30.15,SSW,200,4.0,9.0,64,0.00,,---,0.00,VWS V14.01,2013-07-05 19:55:00,
2013-07-05 16:00:00,86.4,74.2,30.15,WSW,253,7.0,11.0,67,0.00,,---,0.00,VWS V14.01,2013-07-05 20:00:00,
2013-07-05 16:05:00,85.6,73.4,30.14,SSW,210,9.0,13.0,67,0.00,,---,0.00,VWS V14.01,2013-07-05 20:05:00,
2013-07-05 16:10:00,85.7,73.9,30.14,SE,141,2.0,11.0,68,0.00,,---,0.00,VWS V14.01,2013-07-05 20:10:00,
2013-07-05 16:15:00,86.4,74.2,30.14,SSE,160,4.0,11.0,67,0.00,,---,0.00,VWS V14.01,2013-07-05 20:15:00,
2013-07-05 16:20:00,86.5,74.2,30.14,West,278,5.0,7.0,67,0.00,,---,0.00,VWS V14.01,2013-07-05 20:20:00,
2013-07-05 16:25:00,86.5,73.8,30.13,South,177,10.0,11.0,66,0.00,,---,0.00,VWS V14.01,2013-07-05 20:25:00,
2013-07-05 16:30:00,86.0,73.8,30.14,SSW,212,5.0,10.0,67,0.00,,---,0.00,VWS V14.01,2013-07-05 20:30:00,
2013-07-05 16:35:00,85.6,73.8,30.13,SSW,205,4.0,11.0,68,0.00,,---,0.00,VWS V14.01,2013-07-05 20:35:00,
2013-07-05 16:40:00,85.4,74.1,30.13,SE,146,3.0,5.0,69,0.00,,---,0.00,VWS V14.01,2013-07-05 20:40:00,
2013-07-05 16:45:00,85.5,74.2,30.13,SW,217,4.0,9.0,69,0.00,,---,0.00,VWS V14.01,2013-07-05 20:45:00,
2013-07-05 16:50:00,85.7,75.2,30.13,ESE,122,6.0,7.0,71,0.00,,---,0.00,VWS V14.01,2013-07-05 20:50:00,
2013-07-05 16:55:00,85.8,74.0,30.13,West,259,3.0,7.0,68,0.00,,---,0.00,VWS V14.01,2013-07-05 20:55:00,
2013-07-05 17:00:00,86.1,75.2,30.13,SSE,148,5.0,7.0,70,0.00,,---,0.00,VWS V14.01,2013-07-05 21:00:00,
2013-07-05 17:05:00,86.5,74.7,30.13,South,177,6.0,8.0,68,0.00,,---,0.00,VWS V14.01,2013-07-05 21:05:00,
2013-07-05 17:10:00,86.5,74.2,30.13,South,176,3.0,5.0,67,0.00,,---,0.00,VWS V14.01,2013-07-05 21:10:00,
2013-07-05 17:15:00,86.1,74.3,30.13,SW,215,2.0,8.0,68,0.00,,---,0.00,VWS V14.01,2013-07-05 21:15:00,
2013-07-05 17:20:00,86.0,74.2,30.13,South,174,8.0,8.0,68,0.00,,---,0.00,VWS V14.01,2013-07-05 21:20:00,
2013-07-05 17:25:00,86.1,74.3,30.13,SSW,203,6.0,10.0,68,0.00,,---,0.00,VWS V14.01,2013-07-05 21:25:00,
2013-07-05 17:30:00,86.4,74.6,30.12,SSW,207,4.0,8.0,68,0.00,,---,0.00,VWS V14.01,2013-07-05 21:30:00,
2013-07-05 17:36:00,86.6,73.9,30.13,SSW,203,5.0,12.0,66,0.00,,---,0.00,VWS V14.01,2013-07-05 21:36:00,
2013-07-05 17:40:00,86.5,75.1,30.13,SSW,203,12.0,12.0,69,0.00,,---,0.00,VWS V14.01,2013-07-05 21:40:00,
2013-07-05 17:41:00,86.3,73.6,30.13,South,191,9.0,12.0,66,0.00,,---,0.00,VWS V14.01,2013-07-05 21:41:00,
2013-07-05 17:46:00,84.9,73.6,30.13,SSW,207,7.0,12.0,69,0.00,,---,0.00,VWS V14.01,2013-07-05 21:46:00,
2013-07-05 17:50:00,84.1,73.7,30.12,South,177,3.0,6.0,71,0.00,,---,0.00,VWS V14.01,2013-07-05 21:50:00,
2013-07-05 17:55:00,83.9,74.3,30.12,WSW,242,3.0,6.0,73,0.00,,---,0.00,VWS V14.01,2013-07-05 21:55:00,
2013-07-05 18:00:00,84.1,74.5,30.12,SSW,212,2.0,6.0,73,0.00,,---,0.00,VWS V14.01,2013-07-05 22:00:00,
2013-07-05 18:01:00,84.2,74.6,30.12,SSW,203,2.0,5.0,73,0.00,,---,0.00,VWS V14.01,2013-07-05 22:01:00,
2013-07-05 18:06:00,84.2,74.2,30.11,South,176,3.0,5.0,72,0.00,,---,0.00,VWS V14.01,2013-07-05 22:06:00,
2013-07-05 18:10:00,84.0,74.8,30.12,WSW,243,2.0,6.0,74,0.00,,---,0.00,VWS V14.01,2013-07-05 22:10:00,
2013-07-05 18:11:00,83.9,75.1,30.12,SW,214,4.0,4.0,75,0.00,,---,0.00,VWS V14.01,2013-07-05 22:11:00,
2013-07-05 18:16:00,83.4,74.7,30.12,SSW,211,2.0,5.0,75,0.00,,---,0.00,VWS V14.01,2013-07-05 22:16:00,
2013-07-05 18:20:00,83.0,74.7,30.12,SSW,203,1.0,5.0,76,0.00,,---,0.00,VWS V14.01,2013-07-05 22:20:00,
2013-07-05 18:21:00,82.9,74.6,30.12,SW,229,2.0,4.0,76,0.00,,---,0.00,VWS V14.01,2013-07-05 22:21:00,
2013-07-05 18:26:00,82.5,74.6,30.12,SW,215,1.0,4.0,77,0.00,,---,0.00,VWS V14.01,2013-07-05 22:26:00,
2013-07-05 18:30:00,82.3,75.1,30.12,SSW,195,1.0,4.0,79,0.00,,---,0.00,VWS V14.01,2013-07-05 22:30:00,
2013-07-05 18:31:00,82.2,75.0,30.12,SSW,201,1.0,2.0,79,0.00,,---,0.00,VWS V14.01,2013-07-05 22:31:00,
2013-07-05 18:36:00,82.1,74.9,30.12,South,169,0.0,2.0,79,0.00,,---,0.00,VWS V14.01,2013-07-05 22:36:00,
2013-07-05 18:40:00,82.0,75.2,30.12,South,191,0.0,2.0,80,0.00,,---,0.00,VWS V14.01,2013-07-05 22:40:00,
2013-07-05 18:41:00,82.0,75.2,30.12,SSW,209,0.0,0.0,80,0.00,,---,0.00,VWS V14.01,2013-07-05 22:41:00,
2013-07-05 18:46:00,82.0,75.2,30.12,SW,228,1.0,2.0,80,0.00,,---,0.00,VWS V14.01,2013-07-05 22:46:00,
2013-07-05 18:50:00,82.3,75.1,30.12,SW,233,2.0,4.0,79,0.00,,---,0.00,VWS V14.01,2013-07-05 22:50:00,
2013-07-05 18:51:00,82.4,75.2,30.12,South,183,1.0,4.0,79,0.00,,---,0.00,VWS V14.01,2013-07-05 22:51:00,
2013-07-05 18:56:00,83.3,76.5,30.12,WSW,243,2.0,4.0,80,0.00,,---,0.00,VWS V14.01,2013-07-05 22:56:00,
2013-07-05 19:00:00,83.8,75.8,30.12,South,190,3.0,4.0,77,0.00,,---,0.00,VWS V14.01,2013-07-05 23:00:00,
2013-07-05 19:01:00,83.9,75.5,30.12,SSE,162,2.0,6.0,76,0.00,,---,0.00,VWS V14.01,2013-07-05 23:01:00,
2013-07-05 19:06:00,84.3,75.5,30.12,SSW,210,1.0,6.0,75,0.00,,---,0.00,VWS V14.01,2013-07-05 23:06:00,
2013-07-05 19:10:00,84.5,75.3,30.12,WSW,252,2.0,6.0,74,0.00,,---,0.00,VWS V14.01,2013-07-05 23:10:00,
2013-07-05 19:11:00,84.6,75.8,30.12,WSW,238,1.0,4.0,75,0.00,,---,0.00,VWS V14.01,2013-07-05 23:11:00,
2013-07-05 19:16:00,84.4,75.2,30.12,WSW,255,2.0,4.0,74,0.00,,---,0.00,VWS V14.01,2013-07-05 23:16:00,
2013-07-05 19:20:00,84.0,75.6,30.12,SW,224,1.0,6.0,76,0.00,,---,0.00,VWS V14.01,2013-07-05 23:20:00,
2013-07-05 19:21:00,83.8,75.0,30.12,West,261,2.0,6.0,75,0.00,,---,0.00,VWS V14.01,2013-07-05 23:21:00,
2013-07-05 19:26:00,83.1,75.2,30.12,SW,225,0.0,6.0,77,0.00,,---,0.00,VWS V14.01,2013-07-05 23:26:00,
2013-07-05 19:30:00,82.8,75.2,30.12,SSW,198,1.0,6.0,78,0.00,,---,0.00,VWS V14.01,2013-07-05 23:30:00,
2013-07-05 19:31:00,82.7,75.5,30.12,SSW,195,1.0,2.0,79,0.00,,---,0.00,VWS V14.01,2013-07-05 23:31:00,
2013-07-05 19:36:00,82.2,75.4,30.12,SSE,165,1.0,2.0,80,0.00,,---,0.00,VWS V14.01,2013-07-05 23:36:00,
2013-07-05 19:40:00,81.9,74.8,30.12,SSW,212,2.0,5.0,79,0.00,,---,0.00,VWS V14.01,2013-07-05 23:40:00,
2013-07-05 19:41:00,81.8,74.7,30.12,SSW,207,1.0,4.0,79,0.00,,---,0.00,VWS V14.01,2013-07-05 23:41:00,
2013-07-05 19:42:00,81.8,74.7,30.12,SW,217,1.0,4.0,79,0.00,,---,0.00,VWS V14.01,2013-07-05 23:42:00,
2013-07-05 19:47:00,81.6,74.8,30.12,SSW,198,0.0,4.0,80,0.00,,---,0.00,VWS V14.01,2013-07-05 23:47:00,
2013-07-05 19:50:00,81.6,74.8,30.12,SSW,205,1.0,4.0,80,0.00,,---,0.00,VWS V14.01,2013-07-05 23:50:00,
2013-07-05 19:52:00,81.5,74.4,30.12,SSW,203,1.0,2.0,79,0.00,,---,0.00,VWS V14.01,2013-07-05 23:52:00,
2013-07-05 19:57:00,81.2,74.4,30.12,SSW,201,1.0,2.0,80,0.00,,---,0.00,VWS V14.01,2013-07-05 23:57:00,
2013-07-05 20:00:00,81.1,74.3,30.12,SW,215,0.0,2.0,80,0.00,,---,0.00,VWS V14.01,2013-07-06 00:00:00,
2013-07-05 20:02:00,80.9,74.2,30.12,SSW,211,0.0,1.0,80,0.00,,---,0.00,VWS V14.01,2013-07-06 00:02:00,
2013-07-05 20:07:00,80.7,74.3,30.12,SSW,207,0.0,2.0,81,0.00,,---,0.00,VWS V14.01,2013-07-06 00:07:00,
2013-07-05 20:10:00,80.6,74.2,30.12,SW,222,0.0,2.0,81,0.00,,---,0.00,VWS V14.01,2013-07-06 00:10:00,
2013-07-05 20:12:00,80.5,74.1,30.12,SW,226,1.0,2.0,81,0.00,,---,0.00,VWS V14.01,2013-07-06 00:12:00,
2013-07-05 20:17:00,80.4,74.0,30.12,West,259,1.0,2.0,81,0.00,,---,0.00,VWS V14.01,2013-07-06 00:17:00,
2013-07-05 20:20:00,80.3,73.9,30.12,SW,214,0.0,2.0,81,0.00,,---,0.00,VWS V14.01,2013-07-06 00:20:00,
2013-07-05 20:22:00,80.3,73.9,30.13,SSW,199,0.0,1.0,81,0.00,,---,0.00,VWS V14.01,2013-07-06 00:22:00,
2013-07-05 20:27:00,80.2,73.8,30.13,SSW,209,0.0,1.0,81,0.00,,---,0.00,VWS V14.01,2013-07-06 00:27:00,
2013-07-05 20:30:00,80.1,73.8,30.13,SSW,207,0.0,1.0,81,0.00,,---,0.00,VWS V14.01,2013-07-06 00:30:00,
2013-07-05 20:32:00,80.1,73.8,30.13,SSW,207,0.0,0.0,81,0.00,,---,0.00,VWS V14.01,2013-07-06 00:32:00,
2013-07-05 20:37:00,79.9,73.6,30.13,SSW,207,0.0,0.0,81,0.00,,---,0.00,VWS V14.01,2013-07-06 00:37:00,
2013-07-05 20:40:00,79.8,73.5,30.13,SSW,207,0.0,0.0,81,0.00,,---,0.00,VWS V14.01,2013-07-06 00:40:00,
2013-07-05 20:42:00,79.7,73.7,30.13,SSW,207,0.0,0.0,82,0.00,,---,0.00,VWS V14.01,2013-07-06 00:42:00,
2013-07-05 20:47:00,79.5,73.9,30.13,SSW,207,0.0,0.0,83,0.00,,---,0.00,VWS V14.01,2013-07-06 00:47:00,
2013-07-05 20:50:00,79.4,73.8,30.13,SSW,207,0.0,0.0,83,0.00,,---,0.00,VWS V14.01,2013-07-06 00:50:00,
2013-07-05 20:52:00,79.2,73.9,30.13,SW,236,2.0,2.0,84,0.00,,---,0.00,VWS V14.01,2013-07-06 00:52:00,
2013-07-05 20:57:00,78.9,73.7,30.13,SW,215,0.0,2.0,84,0.00,,---,0.00,VWS V14.01,2013-07-06 00:57:00,
2013-07-05 21:00:00,78.7,73.5,30.13,WSW,245,1.0,2.0,84,0.00,,---,0.00,VWS V14.01,2013-07-06 01:00:00,
2013-07-05 21:02:00,78.7,73.1,30.13,WSW,245,0.0,2.0,83,0.00,,---,0.00,VWS V14.01,2013-07-06 01:02:00,
2013-07-05 21:07:00,78.6,73.0,30.13,SW,228,0.0,2.0,83,0.00,,---,0.00,VWS V14.01,2013-07-06 01:07:00,
2013-07-05 21:10:00,78.6,73.0,30.13,SW,228,0.0,2.0,83,0.00,,---,0.00,VWS V14.01,2013-07-06 01:10:00,
2013-07-05 21:12:00,78.5,73.3,30.13,SW,214,0.0,0.0,84,0.00,,---,0.00,VWS V14.01,2013-07-06 01:12:00,
2013-07-05 21:17:00,78.3,73.4,30.13,SSE,156,0.0,1.0,85,0.00,,---,0.00,VWS V14.01,2013-07-06 01:17:00,
2013-07-05 21:20:00,78.2,73.3,30.13,SSE,156,0.0,1.0,85,0.00,,---,0.00,VWS V14.01,2013-07-06 01:20:00,
2013-07-05 21:22:00,78.0,73.1,30.13,SSE,156,0.0,0.0,85,0.00,,---,0.00,VWS V14.01,2013-07-06 01:22:00,
2013-07-05 21:27:00,77.7,73.2,30.14,SSE,156,0.0,0.0,86,0.00,,---,0.00,VWS V14.01,2013-07-06 01:27:00,
2013-07-05 21:30:00,77.5,73.0,30.14,SSE,156,0.0,0.0,86,0.00,,---,0.00,VWS V14.01,2013-07-06 01:30:00,
2013-07-05 21:32:00,77.4,72.9,30.14,SSE,158,0.0,0.0,86,0.00,,---,0.00,VWS V14.01,2013-07-06 01:32:00,
2013-07-05 21:37:00,77.2,73.0,30.14,SSE,158,0.0,0.0,87,0.00,,---,0.00,VWS V14.01,2013-07-06 01:37:00,
2013-07-05 21:40:00,77.1,72.9,30.14,SSE,158,0.0,0.0,87,0.00,,---,0.00,VWS V14.01,2013-07-06 01:40:00,
2013-07-05 21:42:00,76.9,73.1,30.14,SSE,156,0.0,0.0,88,0.00,,---,0.00,VWS V14.01,2013-07-06 01:42:00,
2013-07-05 21:47:00,76.5,72.7,30.14,SSE,156,0.0,0.0,88,0.00,,---,0.00,VWS V14.01,2013-07-06 01:47:00,
2013-07-05 21:48:00,76.5,72.7,30.14,SSE,156,0.0,0.0,88,0.00,,---,0.00,VWS V14.01,2013-07-06 01:48:00,
2013-07-05 21:50:00,76.3,72.5,30.14,SSE,156,0.0,0.0,88,0.00,,---,0.00,VWS V14.01,2013-07-06 01:50:00,
2013-07-05 21:53:00,76.1,73.0,30.14,SSE,156,0.0,0.0,90,0.00,,---,0.00,VWS V14.01,2013-07-06 01:53:00,
2013-07-05 21:58:00,75.7,72.6,30.15,SSE,156,0.0,0.0,90,0.00,,---,0.00,VWS V14.01,2013-07-06 01:58:00,
2013-07-05 22:00:00,75.7,72.6,30.15,SSE,156,0.0,0.0,90,0.00,,---,0.00,VWS V14.01,2013-07-06 02:00:00,
2013-07-05 22:03:00,75.4,72.6,30.15,SSE,157,0.0,0.0,91,0.00,,---,0.00,VWS V14.01,2013-07-06 02:03:00,
2013-07-05 22:08:00,75.1,72.3,30.15,SSE,156,0.0,0.0,91,0.00,,---,0.00,VWS V14.01,2013-07-06 02:08:00,
2013-07-05 22:10:00,75.0,72.2,30.15,SSE,156,0.0,0.0,91,0.00,,---,0.00,VWS V14.01,2013-07-06 02:10:00,
2013-07-05 22:13:00,74.8,72.3,30.15,SSE,156,0.0,0.0,92,0.00,,---,0.00,VWS V14.01,2013-07-06 02:13:00,
2013-07-05 22:18:00,74.6,72.1,30.15,SSE,156,0.0,0.0,92,0.00,,---,0.00,VWS V14.01,2013-07-06 02:18:00,
2013-07-05 22:20:00,74.6,72.1,30.15,SSE,156,0.0,0.0,92,0.00,,---,0.00,VWS V14.01,2013-07-06 02:20:00,
2013-07-05 22:23:00,74.6,72.4,30.15,SSE,156,0.0,0.0,93,0.00,,---,0.00,VWS V14.01,2013-07-06 02:23:00,
2013-07-05 22:28:00,74.4,72.2,30.15,SSE,156,0.0,0.0,93,0.00,,---,0.00,VWS V14.01,2013-07-06 02:28:00,
2013-07-05 22:30:00,74.3,72.2,30.15,SSE,158,0.0,0.0,93,0.00,,---,0.00,VWS V14.01,2013-07-06 02:30:00,
2013-07-05 22:33:00,74.2,72.1,30.15,SSE,158,0.0,0.0,93,0.00,,---,0.00,VWS V14.01,2013-07-06 02:33:00,
2013-07-05 22:38:00,74.1,71.9,30.15,SSE,158,0.0,0.0,93,0.00,,---,0.00,VWS V14.01,2013-07-06 02:38:00,
2013-07-05 22:40:00,74.0,71.8,30.15,SSE,158,0.0,0.0,93,0.00,,---,0.00,VWS V14.01,2013-07-06 02:40:00,
2013-07-05 22:43:00,74.0,72.2,30.15,SSE,158,0.0,0.0,94,0.00,,---,0.00,VWS V14.01,2013-07-06 02:43:00,
2013-07-05 22:48:00,73.7,71.9,30.15,SSE,158,0.0,0.0,94,0.00,,---,0.00,VWS V14.01,2013-07-06 02:48:00,
2013-07-05 22:50:00,73.7,71.9,30.15,SSE,158,0.0,0.0,94,0.00,,---,0.00,VWS V14.01,2013-07-06 02:50:00,
2013-07-05 22:53:00,73.8,72.0,30.15,SSE,158,0.0,0.0,94,0.00,,---,0.00,VWS V14.01,2013-07-06 02:53:00,
2013-07-05 22:58:00,73.8,72.0,30.15,SSE,158,0.0,0.0,94,0.00,,---,0.00,VWS V14.01,2013-07-06 02:58:00,
2013-07-05 23:00:00,73.8,72.0,30.15,SSE,158,0.0,0.0,94,0.00,,---,0.00,VWS V14.01,2013-07-06 03:00:00,
2013-07-05 23:03:00,73.7,71.9,30.15,SSE,158,0.0,0.0,94,0.00,,---,0.00,VWS V14.01,2013-07-06 03:03:00,
2013-07-05 23:08:00,73.7,71.9,30.15,SSE,158,0.0,0.0,94,0.00,,---,0.00,VWS V14.01,2013-07-06 03:08:00,
2013-07-05 23:10:00,73.6,71.8,30.15,SSE,158,0.0,0.0,94,0.00,,---,0.00,VWS V14.01,2013-07-06 03:10:00,
2013-07-05 23:13:00,73.5,71.7,30.16,SSE,158,0.0,0.0,94,0.00,,---,0.00,VWS V14.01,2013-07-06 03:13:00,
2013-07-05 23:18:00,73.3,71.5,30.16,SSE,158,0.0,0.0,94,0.00,,---,0.00,VWS V14.01,2013-07-06 03:18:00,
2013-07-05 23:20:00,73.3,71.5,30.16,SSE,158,0.0,0.0,94,0.00,,---,0.00,VWS V14.01,2013-07-06 03:20:00,
2013-07-05 23:23:00,73.3,71.8,30.16,SSE,158,0.0,0.0,95,0.00,,---,0.00,VWS V14.01,2013-07-06 03:23:00,
2013-07-05 23:28:00,73.3,71.8,30.16,SE,132,0.0,1.0,95,0.00,,---,0.00,VWS V14.01,2013-07-06 03:28:00,
2013-07-05 23:30:00,73.3,71.8,30.15,SE,133,0.0,1.0,95,0.00,,---,0.00,VWS V14.01,2013-07-06 03:30:00,
2013-07-05 23:33:00,73.1,71.6,30.16,SE,132,0.0,0.0,95,0.00,,---,0.00,VWS V14.01,2013-07-06 03:33:00,
2013-07-05 23:38:00,73.0,71.5,30.16,SE,132,0.0,0.0,95,0.00,,---,0.00,VWS V14.01,2013-07-06 03:38:00,
2013-07-05 23:40:00,72.9,71.4,30.16,SE,132,0.0,0.0,95,0.00,,---,0.00,VWS V14.01,2013-07-06 03:40:00,
2013-07-05 23:43:00,72.9,71.7,30.16,SE,132,0.0,0.0,96,0.00,,---,0.00,VWS V14.01,2013-07-06 03:43:00,
2013-07-05 23:48:00,72.9,71.7,30.16,SE,133,0.0,0.0,96,0.00,,---,0.00,VWS V14.01,2013-07-06 03:48:00,
2013-07-05 23:50:00,72.8,71.6,30.16,SE,132,0.0,0.0,96,0.00,,---,0.00,VWS V14.01,2013-07-06 03:50:00,
2013-07-05 23:53:00,72.8,71.6,30.16,SE,133,0.0,0.0,96,0.00,,---,0.00,VWS V14.01,2013-07-06 03:53:00,
2013-07-05 23:58:00,72.7,71.5,30.16,SE,132,0.0,0.0,96,0.00,,---,0.00,VWS V14.01,2013-07-06 03:58:00,